Location: Unspecified
(0.0000°N, 0.0000°E)
Time: 15:21:36
(UTC+00:00)

A-11 Canister half - Pass Details

Date: 24 May 2026
Orbit: 1515 x 1685 km, 47.2° (Epoch: 8 June)

Event Time Altitude Azimuth Distance (km) Brightness Sun altitude
Rises 17:46:04 0° 253° (WSW) 4,903 12.6 2.5°
Reaches altitude 10° 17:50:26 10° 269° (W) 3,890 12.6 1.5°
Maximum altitude 17:57:07 20° 312° (NW) 3,110 11.9 0.0°
Drops below altitude 10° 18:03:42 10° 356° (N) 3,793 11.4 -1.6°
Sets 18:07:57 0° 12° (NNE) 4,744 11.7 -2.6°
